Regional Weather Roundup
Issued by NWS

Home | Current Version | Previous Version | Text Only | Print | Product List | Glossary Off
Versions: 1 2 3 4 5 6 7 8 9 10 11 12 13 14 15 16 17 18 19 20 21 22 23 24 25 26 27 28 29 30 31 32 33 34 35 36 37 38 39 40 41 42 43 44 45 46 47 48 49 50

000
ASUS43 KOAX 291610
RWRNE

WEATHER ROUNDUP FOR NEBRASKA
NATIONAL WEATHER SERVICE OMAHA NE
1100 AM CDT MON AUG 29 2016

NOTES: SATELLITE DATA IS BEING USED TO AUGMENT CLOUD COVER ABOVE
       12000 FEET.
       "FAIR" INDICATES FEW OR NO CLOUDS BELOW 12,000 FEET WITH NO
       SIGNIFICANT WEATHER AND/OR OBSTRUCTIONS TO VISIBILITY.

  * THESE STATIONS DO NOT REPORT WEATHER SUCH AS RAIN...SNOW OR FOG.

NEZ001>004-019>022-054>056-291700-
NEBRASKA PANHANDLE

CITY           SKY/WX    TMP DP  RH WIND       PRES   REMARKS
SCOTTSBLUFF    SUNNY     74  54  49 NW7       30.24R
ALLIANCE       SUNNY     74  57  55 SE8       30.25R
CHADRON        SUNNY     73  51  46 NE8       30.25R
KIMBALL        CLOUDY    73  52  47 CALM      30.30R
SIDNEY         SUNNY     76  54  46 E6        30.28R
$$

NEZ057>060-069>072-079>082-291700-
SOUTHWEST NEBRASKA

CITY           SKY/WX    TMP DP  RH WIND       PRES   REMARKS
NORTH PLATTE   CLOUDY    69  62  78 CALM      30.22R
IMPERIAL       CLOUDY    69  64  84 SW8       30.22F
LEXINGTON      CLOUDY    74  65  72 S14       30.21S
MCCOOK         CLOUDY    72  66  81 S7        30.21R
OGALLALA       CLOUDY    76  61  59 SW6       30.22S
$$

NEZ005>010-023>029-035>040-094-291700-
NORTH CENTRAL NEBRASKA

CITY           SKY/WX    TMP DP  RH WIND       PRES   REMARKS
VALENTINE      SUNNY     81  62  52 SW8       30.18R
AINSWORTH      SUNNY     79  66  64 SW8       30.19R
BROKEN BOW     CLOUDY    71  64  78 S7        30.22R
O`NEILL        PTSUNNY   78  64  62 SW7       30.20R
ORD            CLOUDY    73  63  70 SE7       30.20R
THEDFORD       PTSUNNY   80  60  51 SW6       30.22R
$$

NEZ041-046>049-061>064-073>077-083>087-291700-
SOUTH CENTRAL NEBRASKA

CITY           SKY/WX    TMP DP  RH WIND       PRES   REMARKS
GRAND ISLAND   CLOUDY    73  66  78 SE6       30.22R
AURORA         CLOUDY    75  70  83 SE6       30.21R
HASTINGS       CLOUDY    74  65  73 SE5       30.23R
HEBRON         MOSUNNY   77  72  84 E3        30.20R
HOLDREGE       CLOUDY    73  63  72 S7        30.22R
KEARNEY *      CLOUDY    77  64  65 SE9       30.20S
YORK           CLOUDY    77  70  78 S7        30.21R
$$

NEZ011>018-030>034-042>045-291700-
NORTHEAST NEBRASKA

CITY           SKY/WX    TMP DP  RH WIND       PRES   REMARKS
NORFOLK        CLOUDY    74  66  76 CALM      30.21R
ALBION         PTSUNNY   73  64  73 SE5       30.21R
BLAIR          MOSUNNY   77  71  80 SE5       30.21R
FREMONT        MOSUNNY   77  71  80 S3        30.21R
TEKAMAH        CLOUDY    76  70  82 S6        30.20R
WAYNE          PTSUNNY   73  69  87 S5        30.22R
$$

NEZ050>053-065>068-078-088>093-291700-
SOUTHEAST NEBRASKA

CITY           SKY/WX    TMP DP  RH WIND       PRES   REMARKS
LINCOLN        CLOUDY    81  71  71 S7        30.21R
OMAHA EPPLEY   PTSUNNY   78  69  73 S5        30.20R
BEATRICE       CLOUDY    79  72  79 SE5       30.20S
FALLS CITY     MOSUNNY   81  74  79 CALM      30.20R
NEBRASKA CITY  MOSUNNY   76  74  95 SE3       30.21R
PLATTSMOUTH    MOSUNNY   80  72  77 SE7       30.20R
$$

NEZ044-045-051>053-067-291700-
OMAHA AREA

CITY           SKY/WX    TMP DP  RH WIND       PRES   REMARKS
OMAHA EPPLEY   PTSUNNY   78  69  73 S5        30.20R
BLAIR          MOSUNNY   77  71  80 SE5       30.21R
FREMONT        MOSUNNY   77  71  80 S3        30.21R
MILLARD        CLOUDY    78  70  76 SE5       30.20R
OFFUTT AFB     CLOUDY    77  71  82 SE5       30.19R
PLATTSMOUTH    MOSUNNY   80  72  77 SE7       30.20R
WAHOO          FAIR      77  72  83 SE7       30.20S
$$




USA.gov is the U.S. government's official web portal to all federal, state and local government web resources and services.